RH
34 38 41 38 33 31 31 33 35 33 38 45 52 52 53 52 49 52 53 49 42 37 37 42 45 47 49 51 52 53 53 53 53 48 48 46 44 49 55 56 61 63 59 61
30 37 36 33 27 26 27 29 31 33 37 40 48 51 52 52 54 51 51 54 45 41 40 39 40 42 44 45 48 51 53 53 50 47 43 46 51 56 69 75 76 68 65 63
26 33 33 30 25 20 22 23 23 27 36 40 43 45 48 47 50 55 55 54 52 45 44 43 41 42 40 42 45 48 50 48 48 45 43 47 56 68 76 73 72 73 58 58
17 23 27 26 21 21 21 18 18 29 34 35 39 44 39 46 49 52 59 58 54 50 46 45 45 44 43 41 42 44 48 45 44 46 46 51 58 63 68 74 77 73 57 47
16 18 16 17 17 19 19 17 20 31 29 33 38 43 37 46 51 52 56 59 57 51 47 44 43 45 46 44 42 43 46 46 44 44 47 51 56 57 70 76 72 64 46 44
11 15 14 17 17 17 16 15 19 30 33 35 32 37 32 43 40 48 56 59 55 54 49 45 44 45 46 46 45 44 45 45 45 44 46 50 52 50 65 66 71 66 48 37
9 12 15 17 17 13 11 14 21 22 35 34 34 35 31 31 35 36 40 50 54 54 53 45 43 45 46 46 46 44 43 44 46 45 43 46 48 50 53 52 54 59 56 41
11 11 13 17 16 11 11 12 19 22 28 25 31 36 31 30 33 32 33 39 48 51 52 51 46 44 44 47 48 44 41 44 47 48 40 40 42 45 49 44 42 44 53 50
13 12 14 15 13 12 12 11 12 20 26 32 28 32 32 31 32 32 31 35 39 48 52 52 47 43 43 45 46 42 41 45 47 48 42 35 36 38 39 38 38 44 54 60
15 15 15 15 15 14 12 12 12 13 13 21 32 31 34 32 33 33 29 30 34 41 45 51 49 44 41 40 44 46 43 42 46 50 49 38 35 36 38 36 35 37 46 54
15 17 17 17 19 19 19 19 15 14 15 16 23 20 23 27 32 32 33 29 32 37 42 44 46 46 41 39 43 45 46 45 45 47 50 46 38 37 37 36 35 35 35 40
18 19 20 22 23 23 22 20 20 22 18 19 20 21 19 22 28 33 32 35 31 32 36 41 42 43 40 38 38 39 43 44 44 43 43 45 43 41 39 35 33 34 36 41
24 24 27 25 24 25 27 26 23 22 20 20 20 17 16 23 30 30 34 34 30 31 34 38 40 39 39 38 36 35 35 37 40 40 39 40 41 40 38 36 36 36 37 40
27 28 24 26 26 27 29 32 31 24 29 25 21 21 19 28 31 31 34 36 34 30 30 35 37 37 38 38 39 38 36 35 35 37 34 34 35 35 36 36 37 40 40 40
32 33 31 30 30 30 32 36 37 35 37 28 25 36 32 36 36 36 37 39 39 36 36 38 37 38 40 39 41 43 43 41 40 37 36 34 36 38 39 38 40 43 42 42
37 37 35 35 35 35 34 31 35 39 43 43 41 36 41 37 40 40 42 44 50 46 43 40 40 41 41 42 47 48 50 45 43 42 39 42 43 44 44 44 45 46 50 51
36 37 36 34 37 34 32 32 36 39 43 48 43 46 46 44 43 47 48 54 56 54 47 45 45 45 43 44 42 42 46 51 50 48 44 43 45 48 51 51 49 49 50 52
29 36 37 37 34 36 31 38 39 39 40 44 49 50 53 51 51 49 49 64 70 72 52 47 45 46 48 48 44 42 43 47 48 48 49 49 50 49 51 54 53 50 49 51
22 30 39 40 41 40 42 43 44 40 36 39 43 49 57 59 58 59 59 69 72 81 69 59 49 42 45 47 45 46 45 46 49 49 48 48 48 49 51 51 52 52 53 54
33 30 31 40 39 45 39 44 45 45 41 40 41 42 50 58 71 70 68 82 93 65 72 69 63 47 42 43 42 38 43 48 51 52 55 55 54 52 50 53 55 57 58 60
43 44 42 45 42 40 42 43 45 45 40 46 45 40 42 51 62 72 75 84 72 65 63 72 62 50 42 37 35 32 33 34 39 45 50 53 58 60 63 62 61 62 63 67
44 46 47 50 47 46 44 46 48 48 49 50 55 48 43 47 50 62 74 70 78 75 70 67 55 49 40 32 35 30 30 30 34 37 39 44 48 51 57 64 70 74 72 93
45 44 48 46 45 43 42 42 42 45 50 51 57 59 56 48 50 54 61 64 66 65 57 56 48 47 48 40 40 36 37 36 34 37 35 38 41 42 42 48 57 63 67 68
43 46 48 45 41 42 39 36 39 45 52 56 58 60 60 54 49 52 55 55 55 54 50 48 52 53 49 43 46 44 46 47 46 37 34 37 43 45 47 48 51 58 59 60
41 44 45 47 43 40 37 38 43 47 53 60 59 62 60 59 56 53 53 53 53 54 54 51 53 50 52 47 52 58 59 59 51 41 38 39 39 42 44 45 46 50 55 60
37 37 41 48 44 43 44 48 56 60 60 61 65 67 70 66 63 60 61 59 55 54 56 52 46 53 64 68 73 65 58 51 46 38 37 37 37 36 37 38 40 44 48 52